sat.trackr.live / text

‹ back to catalog

STARLINK-5403

NORAD 54862 · 2022-177AU

PAYLOAD ACTIVE UNKNOWN

§ Identity

Operator
Country
US
Launch date
2022-12-28
Launch site
AFETR
Launch vehicle
Mass (kg)
RCS (m²)

Purposes: comms

External: N2YO · Heavens-Above · Gunter

§ Orbital elements

Epoch: 2026-05-25T01:51:21.268800Z

Period
94.27 min
Inclination
43.0065°
Eccentricity
0.0001442
Mean motion
15.27572242 rev/d
Perigee alt
482.1 km
Apogee alt
484.1 km
Semi-major
6,861.2 km
B*
-3.4557e-5
RAAN
50.1560°
Arg perigee
252.3574°
Mean anomaly
107.7121°
Rev number
18,877

§ Raw data

STARLINK-54031 54862U 22177AU  26145.07732950 -.00001213  00000+0 -34557-4 0  99912 54862  43.0065  50.1560 0001442 252.3574 107.7121 15.27572242188778

JSON: /api/v1/satellites/54862 · /tle

For live sub-satellite position, see the globe view (requires WebGL).

§ Visibility from observer

Set your observer location to see the next 7 days of passes ≥ 10°. The values pass through the URL so the page stays shareable.

No JS? Fill the form by hand. The geolocation button needs JavaScript.